Time,TemperatureF,DewpointF,PressureIn,WindDirection,WindDirectionDegrees,WindSpeedMPH,WindSpeedGustMPH,Humidity,HourlyPrecipIn,Conditions,Clouds,dailyrainin,SoftwareType,DateUTC
2013-02-27 00:00:00,50.4,24.4,28.97,East,90,2.2,3.6,36,0.00,,,0.00,LWC V2.10 B1813,2013-02-27 06:00:00,
2013-02-27 00:05:00,50.2,24.3,28.97,North,10,3.1,4.0,36,0.00,,,0.00,LWC V2.10 B1813,2013-02-27 06:05:00,
2013-02-27 00:10:00,50.9,24.2,28.97,North,11,3.1,3.1,35,0.00,,,0.00,LWC V2.10 B1813,2013-02-27 06:10:00,
2013-02-27 00:15:00,51.3,24.6,28.97,North,11,2.7,2.7,35,0.00,,,0.00,LWC V2.10 B1813,2013-02-27 06:15:00,
2013-02-27 00:17:00,51.3,24.6,28.97,North,11,0.0,2.7,35,0.00,,,0.00,LWC V2.10 B1813,2013-02-27 06:17:00,
2013-02-27 00:22:00,51.4,24.7,28.97,East,95,0.0,3.1,35,0.00,,,0.00,LWC V2.10 B1813,2013-02-27 06:22:00,
2013-02-27 00:27:00,51.6,24.2,28.97,East,95,0.0,0.0,34,0.00,,,0.00,LWC V2.10 B1813,2013-02-27 06:27:00,
2013-02-27 00:32:00,51.8,23.6,28.97,East,95,0.0,0.0,33,0.00,,,0.00,LWC V2.10 B1813,2013-02-27 06:32:00,
2013-02-27 00:37:00,52.5,24.3,28.97,East,95,2.2,2.7,33,0.00,,,0.00,LWC V2.10 B1813,2013-02-27 06:37:00,
2013-02-27 00:42:00,52.7,24.4,28.97,ESE,104,2.7,3.6,33,0.00,,,0.00,LWC V2.10 B1813,2013-02-27 06:42:00,
2013-02-27 00:47:00,52.7,23.7,28.97,ESE,104,2.2,3.1,32,0.00,,,0.00,LWC V2.10 B1813,2013-02-27 06:47:00,
2013-02-27 00:52:00,52.7,23.7,28.97,ESE,104,2.2,3.6,32,0.00,,,0.00,LWC V2.10 B1813,2013-02-27 06:52:00,
2013-02-27 00:57:00,52.3,23.4,28.97,South,174,3.1,3.6,32,0.00,,,0.00,LWC V2.10 B1813,2013-02-27 06:57:00,
2013-02-27 01:02:00,51.4,22.6,28.97,South,173,3.6,4.0,32,0.00,,,0.00,LWC V2.10 B1813,2013-02-27 07:02:00,
2013-02-27 01:07:00,51.1,22.3,28.97,South,169,3.1,4.9,32,0.00,,,0.00,LWC V2.10 B1813,2013-02-27 07:07:00,
2013-02-27 01:12:00,50.7,21.9,28.97,SE,130,4.0,4.9,32,0.00,,,0.00,LWC V2.10 B1813,2013-02-27 07:12:00,
2013-02-27 01:17:00,50.2,22.2,29.00,ENE,71,2.7,4.9,33,0.00,,,0.00,LWC V2.10 B1813,2013-02-27 07:17:00,
2013-02-27 01:22:00,50.2,22.9,29.00,ESE,102,2.7,4.0,34,0.00,,,0.00,LWC V2.10 B1813,2013-02-27 07:22:00,
2013-02-27 01:27:00,49.6,23.1,29.00,SE,136,4.5,4.5,35,0.00,,,0.00,LWC V2.10 B1813,2013-02-27 07:27:00,
2013-02-27 01:32:00,49.5,23.0,28.97,SE,145,3.6,5.8,35,0.00,,,0.00,LWC V2.10 B1813,2013-02-27 07:32:00,
2013-02-27 01:37:00,49.6,23.1,28.97,ESE,117,4.0,7.6,35,0.00,,,0.00,LWC V2.10 B1813,2013-02-27 07:37:00,
2013-02-27 01:42:00,50.4,23.1,28.97,South,182,4.9,6.3,34,0.00,,,0.00,LWC V2.10 B1813,2013-02-27 07:42:00,
2013-02-27 01:47:00,50.5,23.2,28.97,SSE,153,3.6,5.8,34,0.00,,,0.00,LWC V2.10 B1813,2013-02-27 07:47:00,
2013-02-27 01:52:00,50.5,23.2,28.97,SSE,157,4.9,7.6,34,0.00,,,0.00,LWC V2.10 B1813,2013-02-27 07:52:00,
2013-02-27 01:57:00,50.5,23.2,28.97,SSW,213,3.6,6.3,34,0.00,,,0.00,LWC V2.10 B1813,2013-02-27 07:57:00,
2013-02-27 02:02:00,50.5,23.2,28.97,South,189,4.0,4.0,34,0.00,,,0.00,LWC V2.10 B1813,2013-02-27 08:02:00,
2013-02-27 02:07:00,50.5,23.2,28.97,SSE,149,4.9,4.9,34,0.00,,,0.00,LWC V2.10 B1813,2013-02-27 08:07:00,
2013-02-27 02:12:00,50.9,23.5,28.97,SSE,154,3.6,4.0,34,0.00,,,0.00,LWC V2.10 B1813,2013-02-27 08:12:00,
2013-02-27 02:17:00,51.3,23.9,28.97,SSE,168,0.0,4.9,34,0.00,,,0.00,LWC V2.10 B1813,2013-02-27 08:17:00,
2013-02-27 02:22:00,51.8,23.6,28.97,SE,138,0.0,2.7,33,0.00,,,0.00,LWC V2.10 B1813,2013-02-27 08:22:00,
2013-02-27 02:27:00,51.8,23.6,28.97,South,185,3.1,3.1,33,0.00,,,0.00,LWC V2.10 B1813,2013-02-27 08:27:00,
2013-02-27 02:32:00,51.6,24.2,29.00,SSW,203,3.1,3.6,34,0.00,,,0.00,LWC V2.10 B1813,2013-02-27 08:32:00,
2013-02-27 02:37:00,51.4,24.0,29.00,SSW,195,5.4,6.3,34,0.00,,,0.00,LWC V2.10 B1813,2013-02-27 08:37:00,
2013-02-27 02:42:00,51.6,24.2,29.00,South,181,7.2,8.1,34,0.00,,,0.00,LWC V2.10 B1813,2013-02-27 08:42:00,
2013-02-27 02:47:00,51.8,23.6,28.97,SSW,201,5.4,8.1,33,0.00,,,0.00,LWC V2.10 B1813,2013-02-27 08:47:00,
2013-02-27 02:52:00,52.2,23.9,28.97,SSW,198,6.3,9.6,33,0.00,,,0.00,LWC V2.10 B1813,2013-02-27 08:52:00,
2013-02-27 02:57:00,52.5,24.3,28.97,South,187,3.1,8.1,33,0.00,,,0.00,LWC V2.10 B1813,2013-02-27 08:57:00,
2013-02-27 03:02:00,52.5,24.3,28.97,South,179,4.0,6.3,33,0.00,,,0.00,LWC V2.10 B1813,2013-02-27 09:02:00,
2013-02-27 03:07:00,52.5,24.3,28.97,South,187,3.6,5.8,33,0.00,,,0.00,LWC V2.10 B1813,2013-02-27 09:07:00,
2013-02-27 03:12:00,52.3,24.1,28.97,South,178,3.6,5.8,33,0.00,,,0.00,LWC V2.10 B1813,2013-02-27 09:12:00,
2013-02-27 03:17:00,52.2,23.9,28.97,SSE,160,5.4,5.8,33,0.00,,,0.00,LWC V2.10 B1813,2013-02-27 09:17:00,
2013-02-27 03:22:00,52.5,24.3,28.97,SSE,168,2.2,5.8,33,0.00,,,0.00,LWC V2.10 B1813,2013-02-27 09:22:00,
2013-02-27 03:27:00,52.3,24.8,28.97,SSW,211,3.6,5.4,34,0.00,,,0.00,LWC V2.10 B1813,2013-02-27 09:27:00,
2013-02-27 03:32:00,52.2,24.7,28.97,South,174,3.6,3.6,34,0.00,,,0.00,LWC V2.10 B1813,2013-02-27 09:32:00,
2013-02-27 03:37:00,52.2,24.7,28.97,South,182,3.6,3.6,34,0.00,,,0.00,LWC V2.10 B1813,2013-02-27 09:37:00,
2013-02-27 03:42:00,52.0,25.2,28.97,SSE,154,4.0,5.4,35,0.00,,,0.00,LWC V2.10 B1813,2013-02-27 09:42:00,
2013-02-27 03:47:00,51.6,24.9,28.97,South,173,3.1,4.0,35,0.00,,,0.00,LWC V2.10 B1813,2013-02-27 09:47:00,
2013-02-27 03:52:00,51.3,25.2,28.97,South,181,4.0,4.0,36,0.00,,,0.00,LWC V2.10 B1813,2013-02-27 09:52:00,
2013-02-27 03:57:00,51.3,25.2,28.97,South,174,5.8,8.7,36,0.00,,,0.00,LWC V2.10 B1813,2013-02-27 09:57:00,
2013-02-27 04:02:00,51.6,25.5,28.97,South,191,4.0,7.6,36,0.00,,,0.00,LWC V2.10 B1813,2013-02-27 10:02:00,
2013-02-27 04:07:00,51.6,25.5,28.97,South,184,5.8,5.8,36,0.00,,,0.00,LWC V2.10 B1813,2013-02-27 10:07:00,
2013-02-27 04:12:00,51.3,25.9,28.97,SSW,204,3.1,7.6,37,0.00,,,0.00,LWC V2.10 B1813,2013-02-27 10:12:00,
2013-02-27 04:16:00,47.7,23.3,29.00,WNW,296,11.0,11.0,38,0.00,,,0.00,LWC V2.10 B1813,2013-02-27 10:16:00,
2013-02-27 04:21:00,46.2,22.0,29.00,West,270,10.5,10.5,38,0.00,,,0.00,LWC V2.10 B1813,2013-02-27 10:21:00,
2013-02-27 04:26:00,48.0,23.6,29.00,West,280,7.6,10.5,38,0.00,,,0.00,LWC V2.10 B1813,2013-02-27 10:26:00,
2013-02-27 04:31:00,48.6,24.1,29.03,WNW,301,5.4,8.3,38,0.00,,,0.00,LWC V2.10 B1813,2013-02-27 10:31:00,
2013-02-27 04:36:00,48.7,24.3,29.03,West,261,6.3,8.3,38,0.00,,,0.00,LWC V2.10 B1813,2013-02-27 10:36:00,
2013-02-27 04:41:00,48.4,24.0,29.03,WSW,250,3.1,4.9,38,0.00,,,0.00,LWC V2.10 B1813,2013-02-27 10:41:00,
2013-02-27 04:46:00,48.4,24.0,29.03,SW,227,2.7,4.9,38,0.00,,,0.00,LWC V2.10 B1813,2013-02-27 10:46:00,
2013-02-27 04:51:00,48.6,24.1,29.03,SW,222,3.6,3.6,38,0.00,,,0.00,LWC V2.10 B1813,2013-02-27 10:51:00,
2013-02-27 04:56:00,48.6,24.1,29.03,WSW,249,4.9,6.3,38,0.00,,,0.00,LWC V2.10 B1813,2013-02-27 10:56:00,
2013-02-27 05:00:00,49.1,24.6,29.03,SW,226,3.1,4.0,38,0.00,,,0.00,LWC V2.10 B1813,2013-02-27 11:00:00,
2013-02-27 05:05:00,49.3,24.8,29.03,SW,217,4.9,7.2,38,0.00,,,0.00,LWC V2.10 B1813,2013-02-27 11:05:00,
2013-02-27 05:10:00,49.6,25.1,29.03,SSW,200,2.7,4.9,38,0.00,,,0.00,LWC V2.10 B1813,2013-02-27 11:10:00,
2013-02-27 05:15:00,48.9,24.4,29.03,South,178,4.0,4.0,38,0.00,,,0.00,LWC V2.10 B1813,2013-02-27 11:15:00,
2013-02-27 05:20:00,49.1,24.0,29.03,SSW,203,2.7,5.4,37,0.00,,,0.00,LWC V2.10 B1813,2013-02-27 11:20:00,
2013-02-27 05:25:00,49.5,24.3,29.03,South,181,5.4,6.3,37,0.00,,,0.00,LWC V2.10 B1813,2013-02-27 11:25:00,
2013-02-27 05:30:00,50.4,25.1,29.03,SSW,213,4.0,7.6,37,0.00,,,0.00,LWC V2.10 B1813,2013-02-27 11:30:00,
2013-02-27 05:35:00,50.9,25.6,29.03,SSW,193,5.4,8.3,37,0.00,,,0.00,LWC V2.10 B1813,2013-02-27 11:35:00,
2013-02-27 05:40:00,50.9,25.6,29.03,SW,222,3.6,6.3,37,0.00,,,0.00,LWC V2.10 B1813,2013-02-27 11:40:00,
2013-02-27 05:45:00,51.1,25.7,29.03,SW,218,8.1,8.1,37,0.00,,,0.00,LWC V2.10 B1813,2013-02-27 11:45:00,
2013-02-27 05:50:00,50.7,25.4,29.03,SSW,204,3.1,8.1,37,0.00,,,0.00,LWC V2.10 B1813,2013-02-27 11:50:00,
2013-02-27 05:55:00,50.9,25.6,29.03,SSW,203,3.6,3.6,37,0.00,,,0.00,LWC V2.10 B1813,2013-02-27 11:55:00,
2013-02-27 06:00:00,50.9,25.6,29.03,SW,236,4.0,4.0,37,0.00,,,0.00,LWC V2.10 B1813,2013-02-27 12:00:00,
2013-02-27 06:05:00,51.1,25.7,29.03,WSW,247,5.8,5.8,37,0.00,,,0.00,LWC V2.10 B1813,2013-02-27 12:05:00,
2013-02-27 06:10:00,51.1,25.7,29.03,WSW,256,5.4,7.6,37,0.00,,,0.00,LWC V2.10 B1813,2013-02-27 12:10:00,
2013-02-27 06:15:00,50.7,25.4,29.03,West,268,4.0,4.0,37,0.00,,,0.00,LWC V2.10 B1813,2013-02-27 12:15:00,
2013-02-27 06:20:00,50.5,25.2,29.03,West,262,4.9,6.3,37,0.00,,,0.00,LWC V2.10 B1813,2013-02-27 12:20:00,
2013-02-27 06:25:00,50.4,25.1,29.03,West,276,5.4,6.3,37,0.00,,,0.00,LWC V2.10 B1813,2013-02-27 12:25:00,
2013-02-27 06:30:00,50.2,24.9,29.06,WSW,257,4.0,5.8,37,0.00,,,0.00,LWC V2.10 B1813,2013-02-27 12:30:00,
2013-02-27 06:35:00,49.8,24.6,29.06,West,279,3.1,4.5,37,0.00,,,0.00,LWC V2.10 B1813,2013-02-27 12:35:00,
2013-02-27 06:40:00,49.5,24.3,29.06,NW,304,2.7,4.0,37,0.00,,,0.00,LWC V2.10 B1813,2013-02-27 12:40:00,
2013-02-27 06:45:00,49.1,24.6,29.06,NW,314,2.2,2.2,38,0.00,,,0.00,LWC V2.10 B1813,2013-02-27 12:45:00,
2013-02-27 06:50:00,48.9,23.8,29.06,NW,320,4.9,6.7,37,0.00,,,0.00,LWC V2.10 B1813,2013-02-27 12:50:00,
2013-02-27 06:55:00,49.8,24.6,29.06,NNW,343,3.1,7.6,37,0.00,,,0.00,LWC V2.10 B1813,2013-02-27 12:55:00,
2013-02-27 07:00:00,50.2,24.9,29.09,West,277,5.8,11.0,37,0.00,,,0.00,LWC V2.10 B1813,2013-02-27 13:00:00,
2013-02-27 07:05:00,50.4,24.4,29.09,WNW,298,8.3,8.7,36,0.00,,,0.00,LWC V2.10 B1813,2013-02-27 13:05:00,
2013-02-27 07:10:00,50.4,24.4,29.09,NW,307,8.1,9.2,36,0.00,,,0.00,LWC V2.10 B1813,2013-02-27 13:10:00,
2013-02-27 07:15:00,50.2,24.3,29.09,NNW,342,3.1,10.5,36,0.00,,,0.00,LWC V2.10 B1813,2013-02-27 13:15:00,
2013-02-27 07:20:00,50.4,24.4,29.09,WNW,294,8.1,8.1,36,0.00,,,0.00,LWC V2.10 B1813,2013-02-27 13:20:00,
2013-02-27 07:25:00,51.1,25.1,29.09,NW,312,13.2,13.2,36,0.00,,,0.00,LWC V2.10 B1813,2013-02-27 13:25:00,
2013-02-27 07:30:00,50.7,24.7,29.12,NNW,329,13.2,17.0,36,0.00,,,0.00,LWC V2.10 B1813,2013-02-27 13:30:00,
2013-02-27 07:35:00,50.2,24.3,29.12,WNW,284,10.5,15.4,36,0.00,,,0.00,LWC V2.10 B1813,2013-02-27 13:35:00,
2013-02-27 07:40:00,49.5,24.3,29.12,WNW,295,17.4,17.4,37,0.00,,,0.00,LWC V2.10 B1813,2013-02-27 13:40:00,
2013-02-27 07:45:00,48.9,23.8,29.12,NW,324,12.3,12.3,37,0.00,,,0.00,LWC V2.10 B1813,2013-02-27 13:45:00,
2013-02-27 07:50:00,48.2,23.2,29.12,WNW,294,11.9,19.7,37,0.00,,,0.00,LWC V2.10 B1813,2013-02-27 13:50:00,
2013-02-27 07:56:00,47.7,23.3,29.12,NW,323,8.1,22.4,38,0.00,,,0.00,LWC V2.10 B1813,2013-02-27 13:56:00,
2013-02-27 08:01:00,47.5,23.2,29.15,WNW,284,15.4,20.1,38,0.00,,,0.00,LWC V2.10 B1813,2013-02-27 14:01:00,
2013-02-27 08:06:00,47.7,23.3,29.15,NE,38,10.1,12.8,38,0.00,,,0.00,LWC V2.10 B1813,2013-02-27 14:06:00,
2013-02-27 08:11:00,47.1,23.5,29.15,WNW,291,15.0,19.7,39,0.00,,,0.00,LWC V2.10 B1813,2013-02-27 14:11:00,
2013-02-27 08:16:00,46.2,23.2,29.18,WNW,300,10.5,17.0,40,0.00,,,0.00,LWC V2.10 B1813,2013-02-27 14:16:00,
2013-02-27 08:21:00,45.7,22.8,29.18,WNW,284,15.0,18.3,40,0.00,,,0.00,LWC V2.10 B1813,2013-02-27 14:21:00,
2013-02-27 08:26:00,45.7,23.3,29.18,WNW,286,10.1,11.4,41,0.00,,,0.00,LWC V2.10 B1813,2013-02-27 14:26:00,
2013-02-27 08:31:00,45.5,23.2,29.20,West,271,15.0,15.4,41,0.00,,,0.00,LWC V2.10 B1813,2013-02-27 14:31:00,
2013-02-27 08:36:00,45.5,23.8,29.20,WNW,297,5.8,12.8,42,0.00,,,0.00,LWC V2.10 B1813,2013-02-27 14:36:00,
2013-02-27 08:41:00,45.5,24.3,29.20,WNW,284,10.1,10.5,43,0.00,,,0.00,LWC V2.10 B1813,2013-02-27 14:41:00,
2013-02-27 08:46:00,45.5,24.3,29.20,NNW,327,11.0,11.0,43,0.00,,,0.00,LWC V2.10 B1813,2013-02-27 14:46:00,
2013-02-27 08:51:00,45.7,25.0,29.20,WNW,287,10.5,17.0,44,0.00,,,0.00,LWC V2.10 B1813,2013-02-27 14:51:00,
2013-02-27 08:56:00,45.9,25.2,29.20,NW,319,11.4,11.4,44,0.00,,,0.00,LWC V2.10 B1813,2013-02-27 14:56:00,
2013-02-27 09:01:00,46.0,25.4,29.20,WNW,292,6.3,10.5,44,0.00,,,0.00,LWC V2.10 B1813,2013-02-27 15:01:00,
2013-02-27 09:06:00,46.2,25.5,29.20,WNW,292,5.8,8.7,44,0.00,,,0.00,LWC V2.10 B1813,2013-02-27 15:06:00,
2013-02-27 09:11:00,46.4,25.7,29.20,West,277,4.0,6.3,44,0.00,,,0.00,LWC V2.10 B1813,2013-02-27 15:11:00,
2013-02-27 09:16:00,46.9,26.2,29.20,WNW,293,8.3,10.1,44,0.00,,,0.00,LWC V2.10 B1813,2013-02-27 15:16:00,
2013-02-27 09:21:00,47.5,26.7,29.20,NNW,340,5.8,8.3,44,0.00,,,0.00,LWC V2.10 B1813,2013-02-27 15:21:00,
2013-02-27 09:26:00,47.8,27.0,29.20,SW,227,3.1,7.6,44,0.00,,,0.00,LWC V2.10 B1813,2013-02-27 15:26:00,
2013-02-27 09:31:00,48.2,27.3,29.20,WNW,282,8.7,8.7,44,0.00,,,0.00,LWC V2.10 B1813,2013-02-27 15:31:00,
2013-02-27 09:36:00,48.7,27.3,29.20,WNW,284,2.7,7.6,43,0.00,,,0.00,LWC V2.10 B1813,2013-02-27 15:36:00,
2013-02-27 09:41:00,49.5,27.9,29.20,NNW,331,9.6,10.1,43,0.00,,,0.00,LWC V2.10 B1813,2013-02-27 15:41:00,
2013-02-27 09:46:00,50.0,28.4,29.24,NNW,330,5.8,7.2,43,0.00,,,0.00,LWC V2.10 B1813,2013-02-27 15:46:00,
2013-02-27 09:51:00,50.4,28.1,29.24,NW,304,3.6,10.5,42,0.00,,,0.00,LWC V2.10 B1813,2013-02-27 15:51:00,
2013-02-27 09:56:00,50.5,28.3,29.24,NW,325,7.6,11.9,42,0.00,,,0.00,LWC V2.10 B1813,2013-02-27 15:56:00,
2013-02-27 10:01:00,50.7,28.5,29.24,WNW,292,7.6,8.7,42,0.00,,,0.00,LWC V2.10 B1813,2013-02-27 16:01:00,
2013-02-27 10:06:00,51.3,29.0,29.24,NW,318,3.6,9.2,42,0.00,,,0.00,LWC V2.10 B1813,2013-02-27 16:06:00,
2013-02-27 10:11:00,51.6,29.3,29.24,North,1,8.3,10.5,42,0.00,,,0.00,LWC V2.10 B1813,2013-02-27 16:11:00,
2013-02-27 10:16:00,52.2,29.2,29.24,NNE,22,5.4,8.7,41,0.00,,,0.00,LWC V2.10 B1813,2013-02-27 16:16:00,
2013-02-27 10:21:00,53.2,30.2,29.24,WNW,298,11.0,11.0,41,0.00,,,0.00,LWC V2.10 B1813,2013-02-27 16:21:00,
2013-02-27 10:26:00,53.2,30.2,29.24,NNW,335,7.2,12.8,41,0.00,,,0.00,LWC V2.10 B1813,2013-02-27 16:26:00,
2013-02-27 10:31:00,54.0,30.2,29.24,NW,319,8.7,11.9,40,0.00,,,0.00,LWC V2.10 B1813,2013-02-27 16:31:00,
2013-02-27 10:36:00,54.3,30.5,29.24,NNW,334,12.3,18.3,40,0.00,,,0.00,LWC V2.10 B1813,2013-02-27 16:36:00,
2013-02-27 10:41:00,54.7,30.2,29.24,North,357,12.3,12.3,39,0.00,,,0.00,LWC V2.10 B1813,2013-02-27 16:41:00,
2013-02-27 10:46:00,55.0,30.5,29.24,NW,308,5.8,8.3,39,0.00,,,0.00,LWC V2.10 B1813,2013-02-27 16:46:00,
2013-02-27 10:51:00,55.8,31.2,29.24,NNW,329,10.5,13.2,39,0.00,,,0.00,LWC V2.10 B1813,2013-02-27 16:51:00,
2013-02-27 10:56:00,56.1,30.9,29.24,NW,311,15.4,15.4,38,0.00,,,0.00,LWC V2.10 B1813,2013-02-27 16:56:00,
2013-02-27 11:01:00,56.1,30.9,29.24,NNE,19,5.8,10.1,38,0.00,,,0.00,LWC V2.10 B1813,2013-02-27 17:01:00,
2013-02-27 11:06:00,56.8,31.5,29.24,WNW,294,8.7,17.0,38,0.00,,,0.00,LWC V2.10 B1813,2013-02-27 17:06:00,
2013-02-27 11:11:00,56.5,31.2,29.24,NW,323,12.3,12.3,38,0.00,,,0.00,LWC V2.10 B1813,2013-02-27 17:11:00,
2013-02-27 11:16:00,56.7,31.3,29.24,NW,319,10.5,13.2,38,0.00,,,0.00,LWC V2.10 B1813,2013-02-27 17:16:00,
2013-02-27 11:21:00,56.3,31.0,29.24,NW,305,8.3,10.1,38,0.00,,,0.00,LWC V2.10 B1813,2013-02-27 17:21:00,
2013-02-27 11:26:00,56.3,31.0,29.24,NNW,332,15.4,15.4,38,0.00,,,0.00,LWC V2.10 B1813,2013-02-27 17:26:00,
2013-02-27 11:31:00,56.3,31.0,29.24,NW,321,6.3,15.0,38,0.00,,,0.00,LWC V2.10 B1813,2013-02-27 17:31:00,
2013-02-27 11:36:00,56.5,30.5,29.24,NNW,329,11.4,12.3,37,0.00,,,0.00,LWC V2.10 B1813,2013-02-27 17:36:00,
2013-02-27 11:41:00,57.0,31.0,29.24,North,0,8.3,12.3,37,0.00,,,0.00,LWC V2.10 B1813,2013-02-27 17:41:00,
2013-02-27 11:46:00,57.0,31.0,29.24,North,349,8.1,13.2,37,0.00,,,0.00,LWC V2.10 B1813,2013-02-27 17:46:00,
2013-02-27 11:51:00,57.0,31.0,29.24,NW,311,2.7,12.8,37,0.00,,,0.00,LWC V2.10 B1813,2013-02-27 17:51:00,
2013-02-27 11:56:00,57.9,31.8,29.24,WNW,296,5.4,8.1,37,0.00,,,0.00,LWC V2.10 B1813,2013-02-27 17:56:00,
2013-02-27 12:01:00,57.7,31.6,29.24,NNW,335,7.6,10.5,37,0.00,,,0.00,LWC V2.10 B1813,2013-02-27 18:01:00,
2013-02-27 12:06:00,57.6,31.5,29.24,NW,324,11.9,14.1,37,0.00,,,0.00,LWC V2.10 B1813,2013-02-27 18:06:00,
2013-02-27 12:11:00,58.3,32.1,29.24,NW,316,12.3,12.3,37,0.00,,,0.00,LWC V2.10 B1813,2013-02-27 18:11:00,
2013-02-27 12:16:00,58.6,31.8,29.24,North,6,2.7,6.3,36,0.00,,,0.00,LWC V2.10 B1813,2013-02-27 18:16:00,
2013-02-27 12:21:00,58.8,31.9,29.24,West,276,10.1,10.1,36,0.00,,,0.00,LWC V2.10 B1813,2013-02-27 18:21:00,
2013-02-27 12:26:00,59.0,32.1,29.24,WNW,287,9.2,9.2,36,0.00,,,0.00,LWC V2.10 B1813,2013-02-27 18:26:00,
2013-02-27 12:31:00,59.0,32.1,29.24,NNW,342,10.1,19.2,36,0.00,,,0.00,LWC V2.10 B1813,2013-02-27 18:31:00,
2013-02-27 12:36:00,59.2,31.5,29.24,North,8,10.1,10.1,35,0.00,,,0.00,LWC V2.10 B1813,2013-02-27 18:36:00,
2013-02-27 12:41:00,58.8,31.2,29.24,NW,307,6.3,12.8,35,0.00,,,0.00,LWC V2.10 B1813,2013-02-27 18:41:00,
2013-02-27 12:46:00,59.7,32.0,29.24,West,261,8.1,12.3,35,0.00,,,0.00,LWC V2.10 B1813,2013-02-27 18:46:00,
2013-02-27 12:51:00,59.7,32.0,29.24,WNW,298,10.1,12.3,35,0.00,,,0.00,LWC V2.10 B1813,2013-02-27 18:51:00,
2013-02-27 12:56:00,59.9,32.2,29.24,NNW,338,5.4,8.7,35,0.00,,,0.00,LWC V2.10 B1813,2013-02-27 18:56:00,
2013-02-27 13:01:00,60.4,31.9,29.24,NW,325,10.1,10.5,34,0.00,,,0.00,LWC V2.10 B1813,2013-02-27 19:01:00,
2013-02-27 13:06:00,60.6,32.1,29.24,North,7,8.7,10.1,34,0.00,,,0.00,LWC V2.10 B1813,2013-02-27 19:06:00,
2013-02-27 13:11:00,60.1,31.6,29.24,NW,309,8.7,10.1,34,0.00,,,0.00,LWC V2.10 B1813,2013-02-27 19:11:00,
2013-02-27 13:16:00,60.6,32.1,29.24,NW,304,4.0,10.1,34,0.00,,,0.00,LWC V2.10 B1813,2013-02-27 19:16:00,
2013-02-27 13:21:00,60.8,30.8,29.24,NNE,22,8.1,11.9,32,0.00,,,0.00,LWC V2.10 B1813,2013-02-27 19:21:00,
2013-02-27 13:26:00,60.6,30.6,29.24,WNW,300,6.3,8.1,32,0.00,,,0.00,LWC V2.10 B1813,2013-02-27 19:26:00,
2013-02-27 13:31:00,61.5,31.4,29.24,NNW,331,4.9,7.6,32,0.00,,,0.00,LWC V2.10 B1813,2013-02-27 19:31:00,
2013-02-27 13:36:00,61.0,30.1,29.24,North,0,5.8,10.5,31,0.00,,,0.00,LWC V2.10 B1813,2013-02-27 19:36:00,
2013-02-27 13:41:00,60.8,29.2,29.24,North,353,8.3,12.3,30,0.00,,,0.00,LWC V2.10 B1813,2013-02-27 19:41:00,
2013-02-27 13:46:00,60.6,29.0,29.24,North,357,8.1,12.8,30,0.00,,,0.00,LWC V2.10 B1813,2013-02-27 19:46:00,
2013-02-27 13:51:00,61.0,28.5,29.24,North,349,7.6,12.8,29,0.00,,,0.00,LWC V2.10 B1813,2013-02-27 19:51:00,
2013-02-27 13:56:00,61.0,28.5,29.24,NNW,337,9.6,9.6,29,0.00,,,0.00,LWC V2.10 B1813,2013-02-27 19:56:00,
2013-02-27 14:01:00,61.3,28.8,29.24,NW,317,4.9,12.8,29,0.00,,,0.00,LWC V2.10 B1813,2013-02-27 20:01:00,
2013-02-27 14:06:00,61.0,28.5,29.24,NNW,329,5.8,10.1,29,0.00,,,0.00,LWC V2.10 B1813,2013-02-27 20:06:00,
2013-02-27 14:11:00,60.8,27.5,29.24,WNW,289,8.3,17.4,28,0.00,,,0.00,LWC V2.10 B1813,2013-02-27 20:11:00,
2013-02-27 14:16:00,60.3,27.9,29.24,NNW,328,3.6,4.9,29,0.00,,,0.00,LWC V2.10 B1813,2013-02-27 20:16:00,
2013-02-27 14:21:00,61.0,28.5,29.24,NNW,333,7.6,7.6,29,0.00,,,0.00,LWC V2.10 B1813,2013-02-27 20:21:00,
2013-02-27 14:26:00,61.2,27.8,29.24,NNW,337,2.7,10.1,28,0.00,,,0.00,LWC V2.10 B1813,2013-02-27 20:26:00,
2013-02-27 14:31:00,61.0,26.8,29.24,NNW,342,8.3,16.8,27,0.00,,,0.00,LWC V2.10 B1813,2013-02-27 20:31:00,
2013-02-27 14:36:00,61.2,27.8,29.24,NNW,343,3.1,13.2,28,0.00,,,0.00,LWC V2.10 B1813,2013-02-27 20:36:00,
2013-02-27 14:41:00,60.6,27.3,29.24,WNW,298,5.4,11.0,28,0.00,,,0.00,LWC V2.10 B1813,2013-02-27 20:41:00,
2013-02-27 14:46:00,61.0,26.8,29.24,NW,306,4.0,10.1,27,0.00,,,0.00,LWC V2.10 B1813,2013-02-27 20:46:00,
2013-02-27 14:51:00,61.2,26.9,29.24,NNW,331,8.3,8.3,27,0.00,,,0.00,LWC V2.10 B1813,2013-02-27 20:51:00,
2013-02-27 14:56:00,61.5,26.3,29.24,NNW,334,14.1,14.1,26,0.00,,,0.00,LWC V2.10 B1813,2013-02-27 20:56:00,
2013-02-27 15:01:00,61.3,26.2,29.24,North,353,5.8,11.0,26,0.00,,,0.00,LWC V2.10 B1813,2013-02-27 21:01:00,
2013-02-27 15:06:00,61.7,26.5,29.24,NW,313,8.1,12.3,26,0.00,,,0.00,LWC V2.10 B1813,2013-02-27 21:06:00,
2013-02-27 15:11:00,61.5,25.4,29.24,NW,325,4.0,10.5,25,0.00,,,0.00,LWC V2.10 B1813,2013-02-27 21:11:00,
2013-02-27 15:16:00,61.7,26.5,29.20,NW,304,6.3,6.3,26,0.00,,,0.00,LWC V2.10 B1813,2013-02-27 21:16:00,
2013-02-27 15:21:00,61.9,25.7,29.20,North,5,8.1,12.3,25,0.00,,,0.00,LWC V2.10 B1813,2013-02-27 21:21:00,
2013-02-27 15:26:00,62.1,25.8,29.20,NNW,335,12.8,12.8,25,0.00,,,0.00,LWC V2.10 B1813,2013-02-27 21:26:00,
2013-02-27 15:31:00,61.7,24.5,29.20,North,357,8.1,11.9,24,0.00,,,0.00,LWC V2.10 B1813,2013-02-27 21:31:00,
2013-02-27 15:36:00,61.9,24.7,29.20,NE,52,5.4,11.0,24,0.00,,,0.00,LWC V2.10 B1813,2013-02-27 21:36:00,
2013-02-27 15:41:00,62.6,25.3,29.20,North,4,6.3,10.1,24,0.00,,,0.00,LWC V2.10 B1813,2013-02-27 21:41:00,
2013-02-27 15:46:00,62.2,25.0,29.20,NW,323,10.5,10.5,24,0.00,,,0.00,LWC V2.10 B1813,2013-02-27 21:46:00,
2013-02-27 15:51:00,62.1,24.9,29.20,NNW,341,6.3,8.7,24,0.00,,,0.00,LWC V2.10 B1813,2013-02-27 21:51:00,
2013-02-27 15:56:00,62.2,25.0,29.20,WNW,297,10.1,10.1,24,0.00,,,0.00,LWC V2.10 B1813,2013-02-27 21:56:00,
2013-02-27 16:01:00,62.6,24.3,29.20,NW,311,5.8,13.2,23,0.00,,,0.00,LWC V2.10 B1813,2013-02-27 22:01:00,
2013-02-27 16:06:00,61.9,15.2,29.20,NW,316,8.3,13.2,16,0.00,,,0.00,LWC V2.10 B1813,2013-02-27 22:06:00,
2013-02-27 16:11:00,62.2,19.5,29.20,NNW,332,6.7,10.1,19,0.00,,,0.00,LWC V2.10 B1813,2013-02-27 22:11:00,
2013-02-27 16:16:00,62.1,19.3,29.20,WNW,300,15.0,15.0,19,0.00,,,0.00,LWC V2.10 B1813,2013-02-27 22:16:00,
2013-02-27 16:21:00,62.1,19.3,29.20,WNW,292,4.0,10.5,19,0.00,,,0.00,LWC V2.10 B1813,2013-02-27 22:21:00,
2013-02-27 16:26:00,62.1,21.7,29.20,WSW,258,8.7,8.7,21,0.00,,,0.00,LWC V2.10 B1813,2013-02-27 22:26:00,
2013-02-27 16:31:00,62.2,21.8,29.20,NNW,336,7.6,11.0,21,0.00,,,0.00,LWC V2.10 B1813,2013-02-27 22:31:00,
2013-02-27 16:36:00,62.1,24.9,29.20,North,357,6.3,8.1,24,0.00,,,0.00,LWC V2.10 B1813,2013-02-27 22:36:00,
2013-02-27 16:41:00,62.2,25.0,29.20,North,357,5.8,8.3,24,0.00,,,0.00,LWC V2.10 B1813,2013-02-27 22:41:00,
2013-02-27 16:46:00,62.1,24.9,29.24,WNW,289,8.3,9.6,24,0.00,,,0.00,LWC V2.10 B1813,2013-02-27 22:46:00,
2013-02-27 16:51:00,61.7,24.5,29.24,NW,320,9.6,13.6,24,0.00,,,0.00,LWC V2.10 B1813,2013-02-27 22:51:00,
2013-02-27 16:56:00,61.3,24.2,29.24,NNW,339,8.7,11.4,24,0.00,,,0.00,LWC V2.10 B1813,2013-02-27 22:56:00,
2013-02-27 17:01:00,61.2,20.9,29.24,North,357,11.4,11.9,21,0.00,,,0.00,LWC V2.10 B1813,2013-02-27 23:01:00,
2013-02-27 17:06:00,61.0,23.9,29.24,NNW,329,5.8,8.3,24,0.00,,,0.00,LWC V2.10 B1813,2013-02-27 23:06:00,
2013-02-27 17:11:00,61.3,21.1,29.24,North,357,6.3,13.2,21,0.00,,,0.00,LWC V2.10 B1813,2013-02-27 23:11:00,
2013-02-27 17:16:00,61.0,20.8,29.24,NW,310,7.6,10.5,21,0.00,,,0.00,LWC V2.10 B1813,2013-02-27 23:16:00,
2013-02-27 17:21:00,61.0,23.9,29.24,North,353,5.8,10.1,24,0.00,,,0.00,LWC V2.10 B1813,2013-02-27 23:21:00,
2013-02-27 17:26:00,60.6,21.6,29.24,NW,304,3.6,17.0,22,0.00,,,0.00,LWC V2.10 B1813,2013-02-27 23:26:00,
2013-02-27 17:31:00,60.6,23.6,29.24,NW,307,8.7,8.7,24,0.00,,,0.00,LWC V2.10 B1813,2013-02-27 23:31:00,
2013-02-27 17:36:00,60.6,23.6,29.24,NNW,340,8.3,10.5,24,0.00,,,0.00,LWC V2.10 B1813,2013-02-27 23:36:00,
2013-02-27 17:41:00,60.3,23.3,29.24,North,357,12.8,12.8,24,0.00,,,0.00,LWC V2.10 B1813,2013-02-27 23:41:00,
2013-02-27 17:46:00,59.7,22.9,29.24,NNE,12,4.0,8.7,24,0.00,,,0.00,LWC V2.10 B1813,2013-02-27 23:46:00,
2013-02-27 17:51:00,59.5,22.7,29.24,NNW,343,4.0,9.6,24,0.00,,,0.00,LWC V2.10 B1813,2013-02-27 23:51:00,
2013-02-27 17:56:00,59.5,22.7,29.24,NE,45,2.2,10.1,24,0.00,,,0.00,LWC V2.10 B1813,2013-02-27 23:56:00,
2013-02-27 18:01:00,59.2,22.4,29.24,NW,305,5.4,8.1,24,0.00,,,0.00,LWC V2.10 B1813,2013-02-28 00:01:00,
2013-02-27 18:06:00,58.6,22.0,29.24,NNW,330,2.7,10.1,24,0.00,,,0.00,LWC V2.10 B1813,2013-02-28 00:06:00,
2013-02-27 18:11:00,58.1,19.5,29.24,NNW,342,8.3,8.3,22,0.00,,,0.00,LWC V2.10 B1813,2013-02-28 00:11:00,
2013-02-27 18:16:00,57.6,21.0,29.24,WNW,292,5.4,8.7,24,0.00,,,0.00,LWC V2.10 B1813,2013-02-28 00:16:00,
2013-02-27 18:21:00,57.2,20.7,29.24,NNW,348,7.2,8.3,24,0.00,,,0.00,LWC V2.10 B1813,2013-02-28 00:21:00,
2013-02-27 18:26:00,56.8,21.4,29.24,North,350,4.0,5.8,25,0.00,,,0.00,LWC V2.10 B1813,2013-02-28 00:26:00,
2013-02-27 18:31:00,56.5,21.1,29.26,North,0,4.0,6.3,25,0.00,,,0.00,LWC V2.10 B1813,2013-02-28 00:31:00,
2013-02-27 18:36:00,56.1,20.8,29.26,North,349,3.6,5.8,25,0.00,,,0.00,LWC V2.10 B1813,2013-02-28 00:36:00,
2013-02-27 18:41:00,55.8,20.5,29.26,North,3,4.0,5.4,25,0.00,,,0.00,LWC V2.10 B1813,2013-02-28 00:41:00,
2013-02-27 18:46:00,55.4,20.2,29.26,North,357,5.8,5.8,25,0.00,,,0.00,LWC V2.10 B1813,2013-02-28 00:46:00,
2013-02-27 18:51:00,55.0,20.8,29.26,NNW,336,4.0,5.4,26,0.00,,,0.00,LWC V2.10 B1813,2013-02-28 00:51:00,
2013-02-27 18:56:00,55.0,20.8,29.26,NNE,22,3.6,5.4,26,0.00,,,0.00,LWC V2.10 B1813,2013-02-28 00:56:00,
2013-02-27 19:01:00,54.9,20.6,29.26,North,357,3.6,7.6,26,0.00,,,0.00,LWC V2.10 B1813,2013-02-28 01:01:00,
2013-02-27 19:06:00,54.7,20.5,29.26,NW,315,3.1,5.4,26,0.00,,,0.00,LWC V2.10 B1813,2013-02-28 01:06:00,
2013-02-27 19:11:00,54.5,20.3,29.26,North,353,3.6,5.8,26,0.00,,,0.00,LWC V2.10 B1813,2013-02-28 01:11:00,
2013-02-27 19:16:00,54.1,20.0,29.26,NNW,338,7.6,7.6,26,0.00,,,0.00,LWC V2.10 B1813,2013-02-28 01:16:00,
2013-02-27 19:21:00,54.0,19.9,29.26,NNW,348,5.4,6.3,26,0.00,,,0.00,LWC V2.10 B1813,2013-02-28 01:21:00,
2013-02-27 19:26:00,54.0,19.9,29.26,NNW,344,3.1,5.8,26,0.00,,,0.00,LWC V2.10 B1813,2013-02-28 01:26:00,
2013-02-27 19:31:00,53.8,19.7,29.26,NNW,348,4.0,4.0,26,0.00,,,0.00,LWC V2.10 B1813,2013-02-28 01:31:00,
2013-02-27 19:36:00,53.6,19.6,29.26,NNW,348,3.1,6.3,26,0.00,,,0.00,LWC V2.10 B1813,2013-02-28 01:36:00,
2013-02-27 19:41:00,53.4,19.4,29.26,NW,325,4.9,4.9,26,0.00,,,0.00,LWC V2.10 B1813,2013-02-28 01:41:00,
2013-02-27 19:46:00,53.2,19.3,29.26,North,353,5.4,9.2,26,0.00,,,0.00,LWC V2.10 B1813,2013-02-28 01:46:00,
2013-02-27 19:51:00,53.2,19.3,29.26,NNE,21,3.1,5.4,26,0.00,,,0.00,LWC V2.10 B1813,2013-02-28 01:51:00,
2013-02-27 19:56:00,53.1,16.3,29.26,NNW,334,3.1,8.1,23,0.00,,,0.00,LWC V2.10 B1813,2013-02-28 01:56:00,
2013-02-27 20:01:00,53.1,14.2,29.26,North,353,5.4,7.6,21,0.00,,,0.00,LWC V2.10 B1813,2013-02-28 02:01:00,
2013-02-27 20:06:00,53.1,14.2,29.26,NNW,339,4.0,8.1,21,0.00,,,0.00,LWC V2.10 B1813,2013-02-28 02:06:00,
2013-02-27 20:11:00,53.1,10.7,29.26,North,0,5.4,8.7,18,0.00,,,0.00,LWC V2.10 B1813,2013-02-28 02:11:00,
2013-02-27 20:16:00,53.1,10.7,29.26,NNW,344,4.0,6.7,18,0.00,,,0.00,LWC V2.10 B1813,2013-02-28 02:16:00,
2013-02-27 20:21:00,52.9,10.6,29.26,NNW,344,5.4,7.2,18,0.00,,,0.00,LWC V2.10 B1813,2013-02-28 02:21:00,
2013-02-27 20:26:00,52.9,7.9,29.26,NNW,348,5.4,7.2,16,0.00,,,0.00,LWC V2.10 B1813,2013-02-28 02:26:00,
2013-02-27 20:31:00,52.7,7.8,29.29,NNW,334,5.8,7.6,16,0.00,,,0.00,LWC V2.10 B1813,2013-02-28 02:31:00,
2013-02-27 20:36:00,52.7,7.8,29.29,NNW,341,3.6,10.5,16,0.00,,,0.00,LWC V2.10 B1813,2013-02-28 02:36:00,
2013-02-27 20:41:00,52.5,7.6,29.29,NNW,340,8.7,8.7,16,0.00,,,0.00,LWC V2.10 B1813,2013-02-28 02:41:00,
2013-02-27 20:46:00,52.3,7.5,29.29,North,357,3.6,9.6,16,0.00,,,0.00,LWC V2.10 B1813,2013-02-28 02:46:00,
2013-02-27 20:51:00,52.2,2.8,29.29,NE,52,2.2,8.1,13,0.00,,,0.00,LWC V2.10 B1813,2013-02-28 02:51:00,
2013-02-27 20:56:00,52.2,2.8,29.29,NNW,343,3.1,5.8,13,0.00,,,0.00,LWC V2.10 B1813,2013-02-28 02:56:00,
2013-02-27 21:01:00,52.0,2.7,29.29,NNW,344,3.1,6.3,13,0.00,,,0.00,LWC V2.10 B1813,2013-02-28 03:01:00,
2013-02-27 21:06:00,52.0,2.7,29.29,NNW,342,7.6,7.6,13,0.00,,,0.00,LWC V2.10 B1813,2013-02-28 03:06:00,
2013-02-27 21:11:00,51.8,7.1,29.29,NNE,17,4.0,8.3,16,0.00,,,0.00,LWC V2.10 B1813,2013-02-28 03:11:00,
2013-02-27 21:16:00,51.8,2.6,29.32,North,6,8.3,8.3,13,0.00,,,0.00,LWC V2.10 B1813,2013-02-28 03:16:00,
2013-02-27 21:21:00,51.6,4.0,29.32,NNW,344,11.0,11.0,14,0.00,,,0.00,LWC V2.10 B1813,2013-02-28 03:21:00,
2013-02-27 21:26:00,51.6,4.0,29.32,NNW,331,8.1,8.7,14,0.00,,,0.00,LWC V2.10 B1813,2013-02-28 03:26:00,
2013-02-27 21:31:00,51.4,3.9,29.32,NNW,331,7.6,7.6,14,0.00,,,0.00,LWC V2.10 B1813,2013-02-28 03:31:00,
2013-02-27 21:36:00,51.3,3.7,29.32,North,353,8.1,8.3,14,0.00,,,0.00,LWC V2.10 B1813,2013-02-28 03:36:00,
2013-02-27 21:41:00,51.1,3.6,29.32,North,357,5.8,8.3,14,0.00,,,0.00,LWC V2.10 B1813,2013-02-28 03:41:00,
2013-02-27 21:46:00,50.9,6.3,29.32,North,9,5.8,8.1,16,0.00,,,0.00,LWC V2.10 B1813,2013-02-28 03:46:00,
2013-02-27 21:51:00,50.7,3.3,29.32,NNW,338,11.9,11.9,14,0.00,,,0.00,LWC V2.10 B1813,2013-02-28 03:51:00,
2013-02-27 21:56:00,50.7,3.3,29.32,NNW,346,7.6,7.6,14,0.00,,,0.00,LWC V2.10 B1813,2013-02-28 03:56:00,
2013-02-27 22:01:00,50.5,3.1,29.32,NNW,331,3.1,10.1,14,0.00,,,0.00,LWC V2.10 B1813,2013-02-28 04:01:00,
2013-02-27 22:06:00,50.5,3.1,29.32,NNE,14,5.8,10.5,14,0.00,,,0.00,LWC V2.10 B1813,2013-02-28 04:06:00,
2013-02-27 22:11:00,50.5,3.1,29.32,North,7,8.1,8.3,14,0.00,,,0.00,LWC V2.10 B1813,2013-02-28 04:11:00,
2013-02-27 22:16:00,50.5,3.1,29.32,NNW,335,10.5,12.3,14,0.00,,,0.00,LWC V2.10 B1813,2013-02-28 04:16:00,
2013-02-27 22:21:00,50.4,3.0,29.32,North,9,5.4,10.1,14,0.00,,,0.00,LWC V2.10 B1813,2013-02-28 04:21:00,
2013-02-27 22:26:00,50.2,2.9,29.32,NNW,336,5.8,13.2,14,0.00,,,0.00,LWC V2.10 B1813,2013-02-28 04:26:00,
2013-02-27 22:31:00,50.2,2.9,29.32,NNW,344,8.1,8.1,14,0.00,,,0.00,LWC V2.10 B1813,2013-02-28 04:31:00,
2013-02-27 22:36:00,50.2,2.9,29.32,NNW,338,6.7,8.3,14,0.00,,,0.00,LWC V2.10 B1813,2013-02-28 04:36:00,
2013-02-27 22:41:00,50.0,2.7,29.32,North,350,4.9,8.3,14,0.00,,,0.00,LWC V2.10 B1813,2013-02-28 04:41:00,
2013-02-27 22:46:00,50.0,2.7,29.32,North,353,11.0,11.0,14,0.00,,,0.00,LWC V2.10 B1813,2013-02-28 04:46:00,
2013-02-27 22:51:00,50.0,2.7,29.32,NNW,348,3.1,8.3,14,0.00,,,0.00,LWC V2.10 B1813,2013-02-28 04:51:00,
2013-02-27 22:56:00,49.8,5.5,29.32,NNW,332,5.8,7.6,16,0.00,,,0.00,LWC V2.10 B1813,2013-02-28 04:56:00,
2013-02-27 23:00:00,49.6,5.3,29.32,NNW,334,7.6,7.6,16,0.00,,,0.00,LWC V2.10 B1813,2013-02-28 05:00:00,
2013-02-27 23:05:00,49.6,5.3,29.32,NNW,328,5.8,11.9,16,0.00,,,0.00,LWC V2.10 B1813,2013-02-28 05:05:00,
2013-02-27 23:10:00,49.5,5.2,29.32,NNE,15,4.9,8.3,16,0.00,,,0.00,LWC V2.10 B1813,2013-02-28 05:10:00,
2013-02-27 23:15:00,49.3,5.0,29.32,NNW,332,0.0,7.6,16,0.00,,,0.00,LWC V2.10 B1813,2013-02-28 05:15:00,
2013-02-27 23:20:00,49.3,5.0,29.32,NNW,332,4.9,7.6,16,0.00,,,0.00,LWC V2.10 B1813,2013-02-28 05:20:00,
2013-02-27 23:25:00,49.1,8.6,29.32,West,280,4.0,8.1,19,0.00,,,0.00,LWC V2.10 B1813,2013-02-28 05:25:00,
2013-02-27 23:30:00,48.9,8.5,29.32,NNW,338,3.1,8.1,19,0.00,,,0.00,LWC V2.10 B1813,2013-02-28 05:30:00,
2013-02-27 23:35:00,48.7,13.6,29.32,North,357,7.6,8.7,24,0.00,,,0.00,LWC V2.10 B1813,2013-02-28 05:35:00,
2013-02-27 23:40:00,48.6,13.4,29.32,North,0,9.6,9.6,24,0.00,,,0.00,LWC V2.10 B1813,2013-02-28 05:40:00,
2013-02-27 23:45:00,48.4,15.1,29.35,NNW,328,3.1,8.7,26,0.00,,,0.00,LWC V2.10 B1813,2013-02-28 05:45:00,
2013-02-27 23:50:00,48.0,15.7,29.35,NW,325,6.3,6.3,27,0.00,,,0.00,LWC V2.10 B1813,2013-02-28 05:50:00,
2013-02-27 23:55:00,47.8,15.5,29.35,North,349,3.6,8.3,27,0.00,,,0.00,LWC V2.10 B1813,2013-02-28 05:55:00,